ICE2097 EGNT-EICK

Flight info

Callsign ICE2097
Flight time 1h 3m
Altitude 38000
Route GIRLI P18 GASKO P16 RIBEL UP16 CROFT Y70 KOLID UL70 PENIL M144 BAGSO DCT TISMO TISMO1G
Aircraft B38M/M-SDE1FGHILORVWXY/HB1

Departure

Time 2026-05-04 22:48
Airport Newcastle International Airport (EGNT)

Arrival

Time 2026-05-04 23:52
Airport Cork International Airport (EICK)
Time Latitude Longitude Altitude Speed Heading
2026-05-04 22:12 55.03732 -1.70671 273 ft 0 kts 185°
2026-05-04 22:35 55.03747 -1.70669 245 ft 4 kts 184°
2026-05-04 22:35 55.03762 -1.70667 272 ft 4 kts 184°
2026-05-04 22:36 55.03786 -1.70665 271 ft 4 kts 170°
2026-05-04 22:36 55.03804 -1.70685 270 ft 4 kts 109°
2026-05-04 22:36 55.03807 -1.70722 270 ft 1 kts 94°
2026-05-04 22:36 55.03807 -1.70729 270 ft 0 kts 94°
2026-05-04 22:41 55.03807 -1.70727 270 ft 1 kts 94°
2026-05-04 22:41 55.03805 -1.70659 270 ft 13 kts 94°
2026-05-04 22:41 55.03793 -1.70447 270 ft 12 kts 104°
2026-05-04 22:42 55.03778 -1.70280 271 ft 15 kts 94°
2026-05-04 22:42 55.03773 -1.70085 272 ft 17 kts 90°
2026-05-04 22:42 55.03781 -1.69869 273 ft 19 kts 81°
2026-05-04 22:42 55.03810 -1.69629 272 ft 19 kts 75°
2026-05-04 22:43 55.03863 -1.69412 270 ft 20 kts 63°
2026-05-04 22:43 55.03914 -1.69211 268 ft 19 kts 65°
2026-05-04 22:43 55.03974 -1.68982 266 ft 23 kts 64°
2026-05-04 22:43 55.04047 -1.68717 264 ft 26 kts 65°
2026-05-04 22:44 55.04048 -1.68711 264 ft 26 kts 65°
2026-05-04 22:44 55.04099 -1.68519 262 ft 28 kts 66°
2026-05-04 22:44 55.04165 -1.68267 259 ft 9 kts 65°
2026-05-04 22:45 55.04197 -1.68149 258 ft 13 kts 65°
2026-05-04 22:45 55.04296 -1.67775 254 ft 21 kts 65°
2026-05-04 22:45 55.04334 -1.67609 252 ft 11 kts 85°
2026-05-04 22:46 55.04331 -1.67530 251 ft 6 kts 95°
2026-05-04 22:46 55.04325 -1.67434 251 ft 9 kts 107°
2026-05-04 22:46 55.04318 -1.67409 251 ft 3 kts 115°
2026-05-04 22:46 55.04309 -1.67389 251 ft 1 kts 146°
2026-05-04 22:47 55.04293 -1.67376 251 ft 4 kts 160°
2026-05-04 22:47 55.04265 -1.67363 251 ft 4 kts 178°
2026-05-04 22:47 55.04229 -1.67368 251 ft 6 kts 208°
2026-05-04 22:47 55.04201 -1.67442 251 ft 9 kts 244°
2026-05-04 22:48 55.04155 -1.67608 252 ft 26 kts 244°
2026-05-04 22:48 55.03966 -1.68322 260 ft 108 kts 245°
2026-05-04 22:48 55.03547 -1.69899 373 ft 169 kts 246°
2026-05-04 22:48 55.02981 -1.71898 927 ft 199 kts 244°
2026-05-04 22:49 55.02292 -1.74193 1650 ft 225 kts 244°
2026-05-04 22:49 55.01428 -1.76502 2891 ft 228 kts 233°
2026-05-04 22:49 55.00314 -1.78477 4036 ft 239 kts 219°
2026-05-04 22:49 54.98822 -1.80063 4769 ft 268 kts 206°
2026-05-04 22:50 54.96945 -1.81021 5594 ft 286 kts 191°
2026-05-04 22:50 54.94974 -1.81457 6947 ft 290 kts 187°
2026-05-04 22:50 54.93019 -1.81960 7490 ft 278 kts 196°
2026-05-04 22:50 54.91161 -1.82811 7693 ft 274 kts 199°
2026-05-04 22:51 54.89358 -1.83780 7861 ft 273 kts 201°
2026-05-04 22:51 54.87559 -1.84845 7990 ft 274 kts 202°
2026-05-04 22:51 54.85762 -1.85975 8034 ft 274 kts 203°
2026-05-04 22:51 54.83973 -1.87137 8034 ft 274 kts 203°
2026-05-04 22:52 54.82137 -1.88034 8024 ft 277 kts 186°
2026-05-04 22:52 54.80261 -1.87548 8032 ft 282 kts 162°
2026-05-04 22:52 54.78455 -1.86164 8040 ft 285 kts 158°
2026-05-04 22:52 54.76650 -1.84740 8040 ft 285 kts 158°
2026-05-04 22:53 54.74851 -1.83306 8044 ft 285 kts 158°
2026-05-04 22:53 54.73049 -1.81862 8028 ft 285 kts 157°
2026-05-04 22:53 54.71167 -1.80818 8286 ft 283 kts 179°
2026-05-04 22:53 54.69240 -1.81153 9386 ft 280 kts 192°
2026-05-04 22:54 54.67280 -1.81678 10347 ft 291 kts 192°
2026-05-04 22:54 54.65219 -1.82271 11017 ft 310 kts 193°
2026-05-04 22:54 54.63043 -1.82922 11751 ft 324 kts 193°
2026-05-04 22:54 54.60793 -1.83611 12608 ft 332 kts 193°
2026-05-04 22:55 54.58510 -1.84322 13661 ft 335 kts 193°
2026-05-04 22:55 54.56202 -1.85045 14521 ft 340 kts 193°
2026-05-04 22:55 54.53877 -1.85776 15380 ft 343 kts 193°
2026-05-04 22:55 54.51506 -1.86522 16225 ft 347 kts 192°
2026-05-04 22:56 54.49118 -1.87273 17064 ft 351 kts 192°
2026-05-04 22:56 54.46702 -1.88031 17884 ft 355 kts 192°
2026-05-04 22:56 54.44262 -1.88796 18629 ft 359 kts 192°
2026-05-04 22:56 54.42536 -1.89337 19087 ft 362 kts 192°
2026-05-04 22:57 54.41575 -1.89638 19343 ft 364 kts 192°
2026-05-04 22:57 54.39629 -1.90247 19856 ft 367 kts 192°
2026-05-04 22:57 54.37097 -1.91039 20491 ft 372 kts 192°
2026-05-04 22:58 54.34539 -1.91838 21133 ft 376 kts 192°
2026-05-04 22:58 54.31953 -1.92644 21764 ft 380 kts 192°
2026-05-04 22:58 54.29343 -1.93457 22383 ft 385 kts 192°
2026-05-04 22:58 54.26693 -1.94281 22991 ft 389 kts 191°
2026-05-04 22:59 54.24035 -1.95256 23573 ft 392 kts 200°
2026-05-04 22:59 54.21629 -1.97420 24093 ft 393 kts 218°
2026-05-04 22:59 54.19563 -2.00502 24594 ft 396 kts 222°
2026-05-04 22:59 54.17511 -2.03685 25044 ft 400 kts 223°
2026-05-04 23:00 54.15455 -2.06918 25557 ft 403 kts 224°
2026-05-04 23:00 54.13397 -2.10185 26030 ft 407 kts 224°
2026-05-04 23:00 54.11315 -2.13503 26504 ft 410 kts 224°
2026-05-04 23:00 54.09233 -2.16829 26982 ft 413 kts 224°
2026-05-04 23:01 54.07840 -2.19051 27292 ft 415 kts 224°
2026-05-04 23:01 54.05720 -2.22430 27762 ft 418 kts 224°
2026-05-04 23:01 54.02882 -2.26914 28362 ft 423 kts 221°
2026-05-04 23:01 54.00393 -2.29587 28808 ft 426 kts 204°
2026-05-04 23:02 53.97622 -2.31424 29242 ft 429 kts 202°
2026-05-04 23:02 53.94830 -2.33294 29602 ft 434 kts 201°
2026-05-04 23:02 53.92918 -2.34551 29824 ft 437 kts 201°
2026-05-04 23:02 53.90063 -2.36405 30239 ft 440 kts 201°
2026-05-04 23:03 53.87239 -2.38223 30583 ft 443 kts 201°
2026-05-04 23:03 53.84350 -2.40079 30947 ft 445 kts 201°
2026-05-04 23:03 53.81449 -2.41937 31292 ft 447 kts 201°
2026-05-04 23:03 53.78529 -2.43804 31656 ft 450 kts 201°
2026-05-04 23:04 53.76017 -2.45409 31949 ft 452 kts 201°
2026-05-04 23:04 53.75463 -2.45762 32007 ft 452 kts 201°
2026-05-04 23:04 53.72509 -2.47646 32360 ft 455 kts 201°
2026-05-04 23:04 53.71659 -2.48187 32466 ft 455 kts 200°
2026-05-04 23:05 53.68684 -2.50081 32740 ft 460 kts 200°
2026-05-04 23:05 53.65777 -2.52376 33033 ft 463 kts 213°
2026-05-04 23:05 53.63304 -2.55815 33393 ft 464 kts 228°
2026-05-04 23:05 53.61444 -2.60228 33776 ft 463 kts 243°
2026-05-04 23:06 53.60084 -2.65139 34171 ft 462 kts 247°
2026-05-04 23:06 53.58794 -2.70089 34542 ft 462 kts 248°
2026-05-04 23:06 53.57889 -2.75233 34939 ft 458 kts 263°
2026-05-04 23:06 53.57804 -2.80496 35371 ft 453 kts 275°
2026-05-04 23:07 53.57976 -2.85547 35690 ft 454 kts 274°
2026-05-04 23:07 53.58193 -2.91019 36077 ft 453 kts 275°
2026-05-04 23:07 53.58424 -2.96277 36445 ft 452 kts 275°
2026-05-04 23:07 53.58669 -3.01550 36801 ft 451 kts 275°
2026-05-04 23:08 53.58916 -3.06807 37158 ft 451 kts 275°
2026-05-04 23:08 53.59165 -3.12063 37519 ft 449 kts 275°
2026-05-04 23:08 53.59408 -3.17248 37842 ft 449 kts 275°
2026-05-04 23:08 53.59655 -3.22562 38090 ft 450 kts 275°
2026-05-04 23:09 53.60131 -3.32972 38072 ft 446 kts 275°
2026-05-04 23:09 53.60598 -3.43372 38076 ft 447 kts 274°
2026-05-04 23:10 53.61057 -3.53808 38082 ft 446 kts 274°
2026-05-04 23:10 53.61508 -3.64251 38070 ft 447 kts 274°
2026-05-04 23:11 53.61947 -3.74645 38090 ft 448 kts 274°
2026-05-04 23:11 53.62379 -3.85101 38084 ft 448 kts 274°
2026-05-04 23:12 53.62803 -3.95559 38081 ft 448 kts 274°
2026-05-04 23:12 53.63218 -4.06024 38082 ft 448 kts 274°
2026-05-04 23:13 53.63624 -4.16496 38078 ft 448 kts 274°
2026-05-04 23:13 53.64019 -4.26936 38086 ft 447 kts 274°
2026-05-04 23:14 53.64408 -4.37399 38091 ft 447 kts 274°
2026-05-04 23:14 53.64784 -4.47796 38083 ft 447 kts 274°
2026-05-04 23:15 53.65153 -4.58257 38090 ft 447 kts 274°
2026-05-04 23:15 53.65512 -4.68686 38072 ft 445 kts 274°
2026-05-04 23:16 53.65860 -4.79080 38086 ft 444 kts 274°
2026-05-04 23:16 53.66203 -4.89480 38093 ft 444 kts 274°
2026-05-04 23:17 53.66538 -4.99885 38092 ft 444 kts 274°
2026-05-04 23:17 53.66863 -5.10266 38089 ft 444 kts 274°
2026-05-04 23:18 53.67174 -5.20660 38093 ft 444 kts 274°
2026-05-04 23:18 53.67475 -5.31068 38091 ft 444 kts 274°
2026-05-04 23:19 53.67761 -5.41415 38095 ft 444 kts 272°
2026-05-04 23:19 53.67437 -5.46554 38071 ft 444 kts 254°
2026-05-04 23:19 53.66231 -5.51328 38102 ft 445 kts 238°
2026-05-04 23:20 53.62266 -5.59412 38087 ft 450 kts 229°
2026-05-04 23:20 53.57962 -5.67075 38088 ft 451 kts 226°
2026-05-04 23:21 53.53559 -5.74634 38090 ft 452 kts 226°
2026-05-04 23:21 53.49150 -5.82113 38092 ft 452 kts 226°
2026-05-04 23:22 53.44720 -5.89600 38095 ft 451 kts 226°
2026-05-04 23:22 53.40291 -5.97059 38106 ft 451 kts 226°
2026-05-04 23:23 53.35855 -6.04509 38096 ft 451 kts 226°
2026-05-04 23:23 53.31422 -6.11929 38105 ft 451 kts 225°
2026-05-04 23:24 53.29202 -6.15636 37895 ft 448 kts 225°
2026-05-04 23:24 53.27023 -6.19269 37089 ft 450 kts 226°
2026-05-04 23:24 53.24806 -6.22960 36389 ft 450 kts 226°
2026-05-04 23:24 53.22600 -6.26627 35897 ft 445 kts 226°
2026-05-04 23:25 53.20420 -6.30245 35490 ft 439 kts 226°
2026-05-04 23:25 53.18262 -6.33822 35026 ft 435 kts 226°
2026-05-04 23:25 53.16129 -6.37351 34491 ft 428 kts 226°
2026-05-04 23:25 53.14046 -6.40793 33943 ft 418 kts 226°
2026-05-04 23:26 53.11999 -6.44171 33427 ft 413 kts 226°
2026-05-04 23:26 53.09965 -6.47522 32960 ft 410 kts 226°
2026-05-04 23:26 53.07947 -6.50841 32487 ft 407 kts 226°
2026-05-04 23:26 53.05939 -6.54140 32005 ft 405 kts 225°
2026-05-04 23:27 53.03938 -6.57424 31554 ft 403 kts 225°
2026-05-04 23:27 53.01948 -6.60685 31099 ft 401 kts 225°
2026-05-04 23:27 52.99967 -6.63926 30651 ft 399 kts 225°
2026-05-04 23:27 52.98002 -6.67136 30202 ft 397 kts 225°
2026-05-04 23:28 52.96033 -6.70350 29689 ft 396 kts 225°
2026-05-04 23:28 52.94078 -6.73535 29235 ft 393 kts 225°
2026-05-04 23:28 52.92142 -6.76686 28811 ft 389 kts 225°
2026-05-04 23:28 52.90214 -6.79820 28390 ft 386 kts 225°
2026-05-04 23:29 52.88325 -6.82886 27983 ft 383 kts 225°
2026-05-04 23:29 52.86426 -6.85965 27572 ft 381 kts 225°
2026-05-04 23:29 52.84532 -6.89031 27165 ft 378 kts 225°
2026-05-04 23:29 52.82655 -6.92067 26770 ft 376 kts 225°
2026-05-04 23:30 52.80793 -6.95074 26376 ft 374 kts 225°
2026-05-04 23:30 52.78947 -6.98049 25989 ft 372 kts 225°
2026-05-04 23:30 52.77094 -7.01035 25604 ft 370 kts 225°
2026-05-04 23:30 52.75253 -7.03997 25224 ft 369 kts 225°
2026-05-04 23:31 52.73419 -7.06944 24845 ft 367 kts 225°
2026-05-04 23:31 52.71599 -7.09866 24457 ft 362 kts 225°
2026-05-04 23:31 52.69811 -7.12731 24111 ft 356 kts 225°
2026-05-04 23:31 52.68035 -7.15573 23745 ft 355 kts 225°
2026-05-04 23:32 52.66267 -7.18401 23321 ft 354 kts 225°
2026-05-04 23:32 52.64502 -7.21219 22926 ft 352 kts 225°
2026-05-04 23:32 52.62753 -7.24010 22570 ft 349 kts 225°
2026-05-04 23:32 52.61022 -7.26767 22217 ft 346 kts 225°
2026-05-04 23:33 52.59298 -7.29512 21869 ft 343 kts 225°
2026-05-04 23:33 52.57588 -7.32231 21514 ft 341 kts 225°
2026-05-04 23:33 52.55887 -7.34932 21169 ft 338 kts 224°
2026-05-04 23:33 52.54219 -7.37577 20839 ft 336 kts 224°
2026-05-04 23:34 52.52544 -7.40230 20498 ft 334 kts 224°
2026-05-04 23:34 52.50865 -7.42887 20155 ft 337 kts 224°
2026-05-04 23:34 52.49169 -7.45570 19806 ft 340 kts 224°
2026-05-04 23:34 52.47462 -7.48264 19460 ft 340 kts 224°
2026-05-04 23:35 52.45759 -7.50951 19128 ft 339 kts 224°
2026-05-04 23:35 52.44072 -7.53609 18787 ft 337 kts 224°
2026-05-04 23:35 52.42389 -7.56257 18437 ft 335 kts 224°
2026-05-04 23:35 52.40711 -7.58895 18065 ft 333 kts 224°
2026-05-04 23:36 52.39045 -7.61511 17706 ft 330 kts 224°
2026-05-04 23:36 52.37394 -7.64101 17364 ft 327 kts 224°
2026-05-04 23:36 52.35754 -7.66670 17028 ft 324 kts 224°
2026-05-04 23:36 52.34132 -7.69209 16701 ft 321 kts 224°
2026-05-04 23:37 52.32524 -7.71723 16366 ft 318 kts 224°
2026-05-04 23:37 52.30930 -7.74213 16047 ft 316 kts 224°
2026-05-04 23:37 52.29346 -7.76683 15722 ft 313 kts 224°
2026-05-04 23:37 52.27796 -7.79101 15404 ft 311 kts 224°
2026-05-04 23:38 52.26244 -7.81518 15093 ft 308 kts 224°
2026-05-04 23:38 52.24700 -7.83921 14773 ft 306 kts 224°
2026-05-04 23:38 52.23161 -7.86315 14458 ft 304 kts 224°
2026-05-04 23:38 52.21630 -7.88692 14136 ft 303 kts 224°
2026-05-04 23:39 52.20110 -7.91053 13825 ft 300 kts 224°
2026-05-04 23:39 52.18614 -7.93373 13476 ft 295 kts 224°
2026-05-04 23:39 52.17128 -7.95673 13162 ft 294 kts 224°
2026-05-04 23:39 52.15631 -7.97990 12857 ft 300 kts 224°
2026-05-04 23:40 52.14092 -8.00302 12537 ft 303 kts 218°
2026-05-04 23:40 52.12198 -8.01791 12160 ft 304 kts 195°
2026-05-04 23:40 52.10180 -8.02636 11864 ft 300 kts 195°
2026-05-04 23:40 52.08173 -8.03499 11578 ft 297 kts 195°
2026-05-04 23:41 52.06185 -8.04341 11278 ft 294 kts 195°
2026-05-04 23:41 52.04216 -8.05167 10973 ft 292 kts 195°
2026-05-04 23:41 52.02251 -8.05986 10687 ft 290 kts 194°
2026-05-04 23:41 52.00301 -8.06797 10380 ft 288 kts 194°
2026-05-04 23:42 51.98366 -8.07600 10216 ft 286 kts 194°
2026-05-04 23:42 51.96432 -8.08402 9992 ft 288 kts 194°
2026-05-04 23:42 51.94489 -8.09207 9659 ft 288 kts 194°
2026-05-04 23:42 51.92551 -8.10010 9315 ft 287 kts 195°
2026-05-04 23:43 51.90621 -8.10808 9001 ft 285 kts 195°
2026-05-04 23:43 51.88710 -8.11598 8698 ft 282 kts 195°
2026-05-04 23:43 51.86838 -8.12369 8392 ft 280 kts 195°
2026-05-04 23:43 51.84951 -8.13147 8104 ft 278 kts 195°
2026-05-04 23:44 51.83083 -8.13917 7800 ft 276 kts 196°
2026-05-04 23:44 51.81235 -8.14678 7499 ft 274 kts 196°
2026-05-04 23:44 51.79386 -8.15438 7206 ft 273 kts 195°
2026-05-04 23:44 51.77554 -8.16191 6916 ft 271 kts 195°
2026-05-04 23:45 51.75736 -8.16938 6618 ft 269 kts 195°
2026-05-04 23:45 51.73920 -8.17684 6370 ft 266 kts 195°
2026-05-04 23:45 51.72154 -8.18406 6225 ft 258 kts 196°
2026-05-04 23:45 51.70471 -8.19096 6163 ft 247 kts 197°
2026-05-04 23:46 51.68956 -8.20276 5975 ft 235 kts 225°
2026-05-04 23:46 51.68055 -8.22352 5723 ft 228 kts 249°
2026-05-04 23:46 51.67471 -8.24695 5530 ft 222 kts 250°
2026-05-04 23:46 51.66914 -8.26993 5307 ft 219 kts 250°
2026-05-04 23:47 51.66375 -8.29274 5084 ft 217 kts 251°
2026-05-04 23:47 51.65842 -8.31558 4882 ft 219 kts 252°
2026-05-04 23:47 51.65340 -8.33867 4661 ft 219 kts 259°
2026-05-04 23:47 51.65431 -8.36279 4292 ft 219 kts 294°
2026-05-04 23:48 51.66324 -8.38213 3945 ft 217 kts 326°
2026-05-04 23:48 51.67664 -8.39281 3681 ft 214 kts 340°
2026-05-04 23:48 51.69046 -8.40161 3410 ft 214 kts 340°
2026-05-04 23:48 51.70439 -8.41026 3114 ft 215 kts 342°
2026-05-04 23:49 51.71364 -8.41582 2990 ft 211 kts 342°
2026-05-04 23:49 51.73099 -8.42611 2957 ft 194 kts 343°
2026-05-04 23:49 51.74377 -8.43358 2608 ft 196 kts 343°
2026-05-04 23:49 51.75640 -8.44102 2337 ft 186 kts 342°
2026-05-04 23:50 51.76780 -8.44775 2055 ft 161 kts 343°
2026-05-04 23:50 51.77752 -8.45349 1808 ft 139 kts 343°
2026-05-04 23:50 51.78342 -8.45695 1641 ft 130 kts 343°
2026-05-04 23:50 51.79271 -8.46252 1430 ft 149 kts 342°
2026-05-04 23:51 51.80272 -8.46818 1216 ft 155 kts 341°
2026-05-04 23:51 51.81277 -8.47407 935 ft 151 kts 339°
2026-05-04 23:51 51.82219 -8.47963 700 ft 139 kts 340°
2026-05-04 23:51 51.83070 -8.48479 560 ft 123 kts 337°
2026-05-04 23:52 51.83812 -8.48918 471 ft 86 kts 338°
2026-05-04 23:52 51.83962 -8.49011 473 ft 0 kts 341°
2026-05-04 23:52 51.84030 -8.49050 476 ft 18 kts 340°
2026-05-04 23:53 51.84163 -8.49129 474 ft 21 kts 339°
2026-05-04 23:53 51.84302 -8.49213 486 ft 21 kts 340°
2026-05-04 23:53 51.84439 -8.49291 489 ft 21 kts 339°
2026-05-04 23:53 51.84575 -8.49374 487 ft 21 kts 340°
2026-05-04 23:54 51.84723 -8.49460 494 ft 19 kts 348°
2026-05-04 23:54 51.84787 -8.49385 488 ft 14 kts 73°
2026-05-04 23:54 51.84820 -8.49244 504 ft 11 kts 44°
2026-05-04 23:54 51.84889 -8.49247 505 ft 11 kts 339°
2026-05-04 23:55 51.84920 -8.49226 505 ft 3 kts 79°
2026-05-04 23:55 51.84923 -8.49187 505 ft 4 kts 84°
2026-05-04 23:55 51.84926 -8.49170 505 ft 3 kts 70°
2026-05-04 23:56 51.84938 -8.49116 505 ft 5 kts 71°
2026-05-04 23:56 51.84942 -8.49098 505 ft 0 kts 70°